Location: C.E.K. Mees Observatory
(42.7003°N, 77.4088°W)
Time: 03:30:32
(UTC-05:00)

Vanguard 3 - Pass Details

Date: 24 June 2018
Orbit: 508 x 3264 km, 33.4° (Epoch: 17 December)

Event Time Altitude Azimuth Distance (km) Brightness Sun altitude
Rises 10:48:37 0° 259° (W) 5,286 11.0 54.7°
Reaches altitude 10° 10:56:03 10° 230° (SW) 5,006 11.1 55.9°
Maximum altitude 10:59:42 11° 215° (SW) 5,192 11.3 56.5°
Drops below altitude 10° 11:03:43 10° 201° (SSW) 5,582 11.6 57.2°
Sets 11:14:16 0° 174° (S) 7,093 12.2 58.9°
